This is the latest recevied weather packets stored in our database for station/object OK2KJT-11. If no packets are shown the sender has not sent any weather packets the latest 10 day(s).
| Time | Temp. | Humidity | Pressure | Rain* | Wind** | Luminosity | Snow |
|---|---|---|---|---|---|---|---|
| 1787682224 | 12.78° C | 80% | 1018.4 hPa | - | - | - | - |
| 1787681624 | 12.78° C | 81% | 1018.1 hPa | - | - | - | - |
| 1787681024 | 12.78° C | 83% | 1018.1 hPa | - | - | - | - |
| 1787680424 | 12.78° C | 82% | 1018 hPa | - | - | - | - |
| 1787679824 | 12.78° C | 82% | 1017.8 hPa | - | - | - | - |
| 1787679224 | 12.78° C | 82% | 1017.8 hPa | - | - | - | - |
| 1787678624 | 12.78° C | 82% | 1017.7 hPa | - | - | - | - |
| 1787678024 | 13.33° C | 80% | 1017.8 hPa | - | - | - | - |
| 1787677425 | 13.33° C | 78% | 1018 hPa | - | - | - | - |
| 1787676825 | 13.89° C | 75% | 1018 hPa | - | - | - | - |
| 1787676225 | 13.89° C | 73% | 1018 hPa | - | - | - | - |
| 1787675625 | 14.44° C | 71% | 1018 hPa | - | - | - | - |
| 1787675074 | 14.44° C | 70% | 1018 hPa | - | - | - | - |
| 1787675026 | 14.44° C | 70% | 1018 hPa | - | - | - | - |
| 1787674426 | 14.44° C | 69% | 1018 hPa | - | - | - | - |
| 1787673826 | 15° C | 69% | 1018 hPa | - | - | - | - |
| 1787673226 | 15° C | 68% | 1018.1 hPa | - | - | - | - |
| 1787672627 | 15° C | 69% | 1017.9 hPa | - | - | - | - |
| 1787672027 | 15° C | 68% | 1018 hPa | - | - | - | - |
| 1787671427 | 15° C | 67% | 1018 hPa | - | - | - | - |
| 1787670827 | 15° C | 67% | 1017.9 hPa | - | - | - | - |
| 1787670227 | 15° C | 67% | 1018 hPa | - | - | - | - |
| 1787669626 | 15.56° C | 66% | 1017.9 hPa | - | - | - | - |
| 1787669026 | 15.56° C | 67% | 1017.9 hPa | - | - | - | - |
| 1787668426 | 15.56° C | 66% | 1017.7 hPa | - | - | - | - |
* Rain since midnight (hover to see other rain measurements)
** Current wind speed in m/s (hover to see current wind gust speed)